BD-2-G7 (41586 NORAD) Tracking and Keplerian Element Data

This shows tracking and keplerian element data for the satellite.

Feedback or suggestion? Click here.




ElementValue
Catalog41586
NameBD-2-G7
Epoch Orbit780
Epoch Day198.7774317
Epoch Year2018
RAAN353.307
Inclination0.7586
Eccentricity9.82E-05
Argument of Perigee257.3515
Mean Anonmoly109.3145
Mean Motion1.00270781
Decay Rate-2.68E-06
L11 41586U 16037A 18198.77743170 -.00000268 00000-0 00000-0 0 9991
L22 41586 0.7586 353.3070 0000982 257.3515 109.3145 1.00270781 7804

Live tracking and technical data element details for BD-2-G7 (NORAD 41586). BD-2-G7 can be tracked NOW for your location showing map with azimuth and elevation plus other details from your city location.

Track the satellite on the map from your city or location and see movement details for azimuth, elevation, latitude, longitude, range, height, and movement on the map or in text.







IsCatalogInMostPopularTable: catalog: 41586, numindb: 74
Update: records affected: 1



GetName: 41586 BD-2-G7

Hit Count: updated at: Fri, 20 Jul 2018 20:27:08 GMT